Location: Bottom School (historical)
(37.9078°N, 89.3593°W)
Time: 19:40:48
(UTC+00:00)

SL-4 R/B - Pass Details

Date: 03 July 2022
Orbit: 425 x 653 km, 51.6° (Epoch: 16 August)

Event Time Altitude Azimuth Distance (km) Brightness Sun altitude
Exits shadow 06:46:35 26° 6° (N) 962 3.9 -28.2°
Drops below altitude 10° 06:48:47 10° 35° (NE) 1,656 5.3 -28.1°
Sets 06:51:12 0° 45° (NE) 2,582 6.3 -28.0°
